Location: Chapisirca
(17.1500°S, 66.1500°W)
Time: 05:31:22
(UTC+00:00)

Daily predictions for brighter satellites

Satellite Brightness Start Highest point End
(mag) Time Altitude Azimuth Time Altitude Azimuth Time Altitude Azimuth
Spot 4 Rocket 4.0 00:06:03 81° WSW 00:06:04 81° WSW 00:11:10 10° NNW
BlueWalker 3 4.4 00:04:06 10° W 00:06:20 16° SW 00:06:37 15° SW
Milstar 3 Cent rocket 3.2 00:02:58 10° WSW 00:07:16 33° S 00:07:19 33° S
Cosmos 1821 Rocket 4.4 00:07:06 10° SSW 00:13:08 61° W 00:19:14 10° N
SEDSat Delta rocket 4.5 00:09:48 10° W 00:16:00 45° SSW 00:16:20 45° SSW
SL-16 R/B 4.3 00:14:08 10° SW 00:18:39 25° WNW 00:23:09 10° NNW
Intelsat 5-1 Rocket 3.5 00:07:49 10° W 00:23:18 65° SSW 00:24:00 62° S
Cosmos 2360 Rocket 3.9 07:58:34 26° NE 07:59:48 29° ENE 08:04:35 10° SE
Cosmos 2333 Rocket 4.3 08:05:57 19° SSE 08:05:57 19° SSE 08:07:28 10° SSE
Cosmos 2227 Rocket 4.3 08:13:02 17° NNE 08:13:02 17° NNE 08:14:13 10° NNE
Cosmos 2322 Rocket 3.0 08:15:03 47° ENE 08:15:11 47° ENE 08:20:39 10° SSE
Cosmos 2219 Rocket 3.9 08:24:00 10° NNE 08:28:54 31° ENE 08:33:49 10° SE
SL-16 R/B 4.4 08:35:11 13° S 08:35:11 13° S 08:35:51 10° S
GPS 2-17 Rocket1 3.9 08:40:04 43° ENE 08:40:04 43° ENE 08:43:00 10° ENE
Atlas Centaur 2 2.8 08:47:04 49° SW 08:49:31 82° SSE 08:56:40 10° ENE
Skynet4D Del rocket 4.4 08:51:53 44° WSW 08:54:44 79° SSE 09:02:05 10° ENE
Cosmos 2333 4.1 08:50:24 10° NNW 08:56:09 89° ENE 09:01:58 10° SSE
Cosmos 2219 3.3 08:55:28 17° SSW 09:00:00 79° ESE 09:05:42 10° NNE
Cosmos 2263 Rocket 2.4 09:00:26 48° WNW 09:00:26 48° WNW 09:05:31 10° N
Aureole 1 Rocket 4.1 08:54:06 10° NNW 09:00:35 88° WSW 09:07:59 10° SSE
SL-16 R/B 2.7 08:54:49 10° SSE 09:01:04 73° ENE 09:07:16 10° N
Cosmos 1758 3.2 09:01:07 10° N 09:04:41 72° E 09:08:20 10° S
Cosmos 1515 Rocket 4.5 09:05:19 10° S 09:09:30 48° E 09:13:40 10° NNE
Okean 3 Rocket 3.7 09:08:48 10° NNW 09:13:09 49° W 09:17:33 10° S
Tiangong -2.2 09:18:02 66° NNW 09:18:02 66° NNW 09:21:02 10° NE
Cosmos 836 Rocket 4.4 09:13:57 16° SSW 09:18:11 65° WNW 09:23:21 10° N
Ariane H10+ 4.3 09:16:02 14° NW 09:19:20 18° NNW 09:23:03 10° NNE
Cosmos 1743 Rocket 4.3 09:16:24 10° N 09:20:35 52° E 09:24:48 10° SSE
Cosmos 1805 Rocket 3.4 09:16:45 10° N 09:21:03 76° W 09:25:23 10° S
Intelsat 5-3 Rocket 3.1 09:23:42 24° WSW 09:28:22 83° SSE 09:32:18 10° ENE
Cosmos 1898 Rocket 3.4 09:24:33 10° NNW 09:29:44 84° WSW 09:35:01 10° SSE
Cosmos 1340 Rocket 4.0 09:29:42 10° NNE 09:33:20 44° E 09:37:01 10° SSE
Cosmos 1937 Rocket 3.7 09:28:46 10° N 09:33:50 72° ENE 09:38:57 10° SSE
IGS 5A 3.2 09:31:55 10° N 09:35:52 87° W 09:39:51 10° SSW
Intercosmos 25 4.2 09:32:11 10° SSW 09:37:07 35° W 09:40:35 10° NNW
OAO 2 Rocket 4.0 09:36:24 23° WSW 09:38:39 34° SSW 09:43:08 10° SE
Meteor 1-28 Rocket 2.7 09:35:35 10° S 09:38:55 84° W 09:42:10 10° NNW
CENTAUR R/B 2.1 09:36:09 10° SSW 09:40:39 62° ESE 09:45:02 10° NE
Cosmos 1844 Rocket 3.4 09:35:16 10° S 09:40:51 55° ESE 09:46:21 10° NNE
SL-8 R/B 3.7 09:38:01 10° NW 09:42:44 84° NE 09:47:31 10° SE
Cosmos 2360 Rocket 3.2 09:40:35 15° WNW 09:43:35 23° WSW 09:47:56 10° SSW
H-2A R/B 4.3 09:41:47 10° NNW 09:44:58 25° W 09:47:23 14° SW
IRS-1D 4.1 09:41:15 10° NNW 09:46:07 38° W 09:51:03 10° SSW
Nadezhda 1 Rocket 4.1 09:41:00 10° S 09:47:28 88° W 09:53:48 10° N
UNK 3.7 09:43:29 10° SSE 09:48:08 89° E 09:52:44 10° NNW
SL-24 DEB 4.2 09:45:47 10° S 09:50:21 89° SW 09:54:54 10° N
CZ-3A R/B 2.5 09:53:07 15° W 09:55:22 59° S 10:05:06 10° ESE
Okean 2 4.0 09:52:34 10° SSW 09:56:02 31° W 09:59:29 10° NNW
USA 215 3.3 09:52:09 10° NNE 09:58:42 78° NW 10:05:18 10° SW
Cosmos 2322 Rocket 3.8 09:57:03 11° W 09:59:15 14° WSW 10:02:05 10° SW
Cosmos 1484 Rocket 2.9 09:57:42 10° NNE 10:01:04 67° ESE 10:04:32 10° S
BlueWalker 3 3.4 10:01:05 12° W 10:03:06 17° WNW 10:05:30 10° NNW
MOS 1 Rocket 3.6 10:07:07 10° N 10:11:15 39° W 10:15:18 10° SSW
Cosmos 2219 Rocket 3.3 10:08:27 10° WNW 10:12:39 21° WSW 10:16:54 10° SSW
Landsat 7 3.7 10:08:19 10° N 10:12:57 77° WNW 10:17:38 10° SSW
Hubble Space Telescope 2.7 10:10:22 10° NNW 10:13:29 25° NNE 10:16:37 10° E
Okean 3 3.8 10:09:56 10° SSW 10:13:47 40° W 10:17:36 10° NNW
CORIOLIS 4.2 10:09:41 10° N 10:15:06 85° WNW 10:20:36 10° SSW
